Theta_e
323 323 323 323 323 323 323 323 323 323 323 324 324 324 323 323 322 321 313 320 326 343 338 328 323 324 323 315 323 326 311 309 311 311 315 321 320 327 331 325 327 325 327 331 326
322 322 322 322 322 322 322 322 322 323 323 323 323 323 323 322 320 318 331 340 343 345 320 317 316 315 314 318 321 319 308 312 318 319 317 321 321 324 324 324 324 326 330 325 322
321 322 322 322 322 321 321 322 322 322 323 323 323 322 322 321 320 316 344 340 345 340 319 319 317 319 317 319 320 316 309 315 319 320 321 320 322 325 322 321 325 324 322 320 319
321 321 321 321 321 321 321 321 322 322 322 322 322 322 322 319 309 317 344 345 346 328 318 315 317 317 314 313 320 312 318 319 320 323 321 319 324 323 324 323 329 328 322 319 318
320 321 320 320 320 320 320 320 320 321 321 321 322 322 317 316 315 331 344 342 326 316 313 313 318 319 313 317 319 314 318 319 320 323 323 326 323 323 324 330 330 327 322 318 318
319 319 319 319 319 319 319 319 318 319 320 322 322 320 320 308 322 329 322 322 319 315 315 313 312 325 320 320 317 320 318 318 318 320 324 323 322 324 327 332 329 324 320 319 320
318 318 318 319 319 319 318 318 317 318 321 324 324 322 315 313 323 325 324 319 318 318 315 320 329 324 322 315 321 320 313 317 317 321 321 324 318 321 329 331 327 325 321 321 321
318 318 318 318 318 318 318 318 317 320 322 325 325 318 312 321 320 319 321 319 320 318 318 319 330 326 322 320 319 316 316 310 317 321 321 315 310 324 329 328 325 326 322 321 322
318 317 317 318 318 318 317 316 319 322 325 325 318 314 312 324 319 321 319 318 319 320 320 324 327 321 320 309 308 312 308 310 314 320 319 316 312 323 327 327 323 324 324 322 322
318 317 316 316 317 316 315 316 322 321 322 322 322 311 315 314 319 322 321 322 319 318 316 314 316 314 312 305 302 305 309 310 311 316 316 314 315 322 326 326 324 324 326 322 322
318 317 316 316 316 315 312 311 309 312 312 310 311 314 318 322 322 318 321 320 318 314 307 311 307 306 310 312 314 313 309 309 314 316 309 310 317 320 323 324 323 323 324 325 325
317 317 316 315 315 314 311 311 309 310 304 314 314 315 320 321 315 317 321 314 313 307 311 308 305 313 315 317 314 310 307 305 311 315 309 311 315 321 321 321 320 324 325 326 323
315 315 315 315 314 315 314 314 314 316 304 312 314 313 313 315 314 316 318 314 310 307 309 304 309 315 313 311 311 308 306 307 311 313 314 312 308 317 321 321 321 322 327 324 324
315 315 315 313 315 313 312 314 314 315 301 310 308 310 313 314 311 319 321 315 310 307 308 307 312 312 311 311 312 305 313 312 311 309 302 313 298 313 317 318 320 320 322 322 326
314 315 314 312 310 311 316 316 315 315 295 308 307 312 314 311 313 317 323 317 308 309 308 306 309 309 308 313 316 308 315 312 312 307 306 308 300 309 315 314 316 319 321 323 327
314 314 313 312 313 317 320 316 314 301 297 304 308 307 305 309 311 316 316 317 316 310 310 308 314 312 310 315 314 316 313 312 310 306 297 305 302 305 309 314 317 320 322 324 324
313 314 310 312 308 315 317 312 300 296 311 305 304 307 305 305 308 312 310 307 304 300 302 308 309 312 317 311 313 312 306 297 295 299 298 308 304 304 312 314 314 320 320 321 324
312 310 310 314 316 315 314 305 297 308 309 310 308 306 303 307 306 308 309 305 309 307 302 299 301 312 317 312 307 308 306 297 292 294 297 308 302 307 315 316 319 319 320 320 319
309 315 315 318 316 316 308 300 303 309 311 311 309 302 302 306 306 305 304 306 309 308 301 300 303 315 317 316 314 308 302 309 302 301 298 300 308 312 315 316 318 317 318 318 319
307 311 313 321 323 315 305 302 309 314 313 313 306 307 301 303 303 303 304 310 310 314 312 307 304 313 316 316 315 310 312 303 303 292 292 299 301 301 308 313 316 316 315 319 321
309 309 319 322 319 310 300 305 310 313 314 312 309 308 310 308 305 303 307 311 313 313 312 311 307 308 312 309 306 307 308 308 306 302 295 295 297 310 309 311 312 312 316 319 319
311 307 322 320 305 307 302 309 307 312 316 315 313 312 311 312 310 308 311 314 319 315 312 313 307 302 307 313 315 312 309 308 301 299 301 300 299 316 312 314 316 316 320 321 322
311 312 323 319 300 301 310 311 314 312 312 313 313 315 315 310 305 311 313 319 317 321 315 313 308 301 301 306 311 307 309 309 308 307 299 298 299 317 317 316 317 314 317 317 320
310 308 314 315 312 307 306 311 307 311 313 313 313 316 312 311 310 307 313 319 320 322 322 319 308 305 299 303 306 304 309 311 307 299 300 301 303 313 314 313 315 314 314 316 320
310 311 316 307 306 307 309 312 310 310 310 313 313 314 312 307 312 307 315 313 318 318 315 313 304 307 308 310 310 309 309 309 307 309 303 304 307 312 315 314 315 314 315 319 319
307 313 314 313 315 312 306 309 309 311 311 309 310 313 315 308 313 312 315 316 316 314 308 314 305 308 308 312 312 308 310 309 310 309 307 308 308 315 317 318 317 317 319 316 317
316 318 316 312 312 310 308 310 310 312 314 314 313 315 316 320 322 318 314 317 315 313 313 316 310 309 303 311 309 303 308 310 309 310 310 305 312 317 316 316 315 316 317 317 318
Wind_Speed
16 15 16 16 17 17 17 17 15 15 14 13 11 12 12 14 17 4 4 5 3 12 4 7 7 10 9 6 7 6 5 2 5 5 4 11 10 4 14 14 7 6 5 7 14
16 16 16 16 17 18 16 17 17 15 14 14 11 12 11 12 4 7 4 7 9 10 3 6 10 10 3 6 2 8 6 14 18 11 13 13 15 15 13 15 11 8 7 14 14
16 16 16 17 18 17 17 16 17 15 14 13 11 10 12 8 3 3 6 7 6 7 3 6 9 2 6 6 3 1 5 7 5 9 15 11 13 11 14 13 13 13 13 11 11
17 17 17 17 19 18 17 16 17 16 13 12 10 9 10 2 2 4 7 7 6 3 4 7 6 6 6 5 8 10 10 9 9 17 12 10 13 11 10 7 11 12 12 13 10
18 18 17 17 19 19 16 17 17 15 12 11 9 7 2 1 8 7 9 7 4 2 4 7 4 4 7 9 9 9 10 10 9 15 12 14 10 10 9 13 11 13 14 11 9
18 18 18 18 19 20 17 17 16 13 10 9 8 4 2 4 6 11 9 7 6 4 7 8 6 13 5 3 6 4 7 9 4 7 10 14 12 9 8 11 12 13 11 9 10
18 18 19 19 20 21 18 16 16 12 8 6 6 4 3 11 10 11 10 8 7 8 8 12 19 18 4 8 6 9 9 8 5 7 7 14 9 10 11 13 13 13 13 11 12
18 18 19 19 21 23 20 20 20 13 6 3 4 3 6 4 3 9 11 9 10 6 9 3 14 13 7 4 6 8 7 6 8 6 2 5 3 15 13 13 10 13 14 12 11
18 18 19 20 21 24 23 28 18 9 6 3 2 2 9 3 4 6 4 9 7 8 8 3 6 1 8 3 6 7 4 6 13 10 6 6 4 16 13 12 12 9 9 10 12
18 18 19 20 22 22 27 21 3 5 4 6 8 2 7 9 6 5 5 9 7 6 5 4 5 3 4 4 4 7 7 11 12 8 7 13 8 17 16 13 13 13 9 12 14
18 19 20 21 23 17 16 8 8 5 3 9 2 6 15 15 8 4 6 4 7 7 5 7 2 10 13 12 3 8 9 14 15 13 2 2 8 19 17 14 11 11 12 11 14
17 19 20 23 25 23 3 4 4 8 8 14 15 15 17 2 4 6 7 2 2 7 8 6 12 22 2 11 10 2 3 5 7 4 5 7 3 16 18 14 9 18 14 13 14
16 17 19 24 26 7 4 10 8 10 3 9 10 8 6 3 5 8 9 7 5 9 11 5 13 3 2 6 7 3 3 6 11 5 4 5 10 19 15 11 9 10 16 13 21
15 15 17 25 5 7 6 7 6 5 3 7 8 6 7 5 4 9 9 8 5 10 12 9 13 8 11 6 4 2 2 5 17 8 4 5 7 3 13 14 14 12 12 12 18
15 15 16 6 6 5 8 10 8 6 3 10 8 4 8 8 3 6 9 6 9 11 5 17 11 8 5 1 1 3 8 13 9 6 4 1 3 17 21 8 12 12 13 14 20
15 12 14 3 4 10 15 10 5 2 6 8 7 2 4 8 12 9 9 7 8 11 13 12 14 4 2 6 5 4 6 4 4 4 4 7 7 7 8 12 12 10 11 15 18
16 13 5 5 6 10 14 6 2 4 4 7 12 9 9 7 11 8 9 7 6 2 8 11 13 5 4 6 6 7 8 5 6 2 6 2 6 11 12 6 5 12 10 7 17
19 16 10 9 7 7 5 4 3 9 10 6 8 10 10 8 8 8 2 6 5 7 5 4 13 6 8 5 8 2 6 6 4 3 5 2 4 5 8 8 10 8 6 8 10
21 4 4 6 12 5 3 2 5 7 13 8 6 3 7 6 7 7 4 5 8 10 8 4 5 4 4 6 11 1 6 5 2 4 4 3 6 8 17 19 8 6 2 8 8
5 4 7 12 7 3 2 6 5 5 8 7 5 6 7 8 8 9 9 9 10 10 9 9 3 3 3 5 3 8 2 12 9 4 4 6 4 6 7 13 12 6 7 1 8
3 3 8 8 6 3 3 7 10 7 4 6 6 7 11 7 9 5 8 10 13 13 8 9 6 1 5 2 2 7 5 4 4 3 1 2 7 7 7 6 6 6 6 14 29
3 3 4 5 3 4 5 6 6 5 4 2 4 5 6 8 5 1 4 4 9 10 2 5 5 4 8 3 6 6 10 9 5 5 3 2 7 6 4 6 3 6 10 9 25
3 4 3 6 3 4 9 12 1 3 6 6 5 8 6 6 6 7 5 4 9 7 3 3 3 4 9 6 2 4 6 6 6 5 5 4 7 3 2 6 1 17 14 15 21
3 4 2 2 3 4 7 7 5 6 4 4 6 6 7 7 2 6 3 2 5 4 1 5 2 5 6 9 6 7 5 5 8 5 4 7 5 5 3 7 10 8 6 11 9
3 7 3 4 5 8 7 7 8 3 6 4 4 7 7 4 7 3 8 3 6 6 3 4 1 3 6 8 15 4 1 13 9 9 7 8 6 8 6 6 8 7 4 7 9
3 4 6 7 3 3 3 2 9 9 5 5 5 9 8 3 4 6 7 6 5 4 2 1 2 4 7 10 14 3 6 8 2 7 3 7 8 7 9 10 5 9 9 6 12
4 5 3 7 2 3 5 4 8 8 6 4 5 7 7 8 8 6 4 5 3 2 1 3 2 2 6 9 10 8 14 8 6 7 5 6 9 15 11 9 7 6 4 5 3
Wind_Direction
339 336 330 330 325 324 322 321 321 317 316 314 320 318 325 326 308 168 243 189 170 130 151 281 228 245 233 133 153 98 85 115 277 197 144 122 120 92 129 147 194 196 154 100 83
336 331 328 328 324 320 319 317 316 319 317 314 320 319 324 335 284 262 186 148 128 147 202 270 303 328 28 150 308 106 129 174 212 199 121 117 110 141 151 135 128 131 105 80 79
333 328 327 326 321 319 316 317 315 321 318 315 318 318 316 328 310 238 157 146 127 176 281 288 290 312 58 56 2 143 176 102 130 132 107 109 117 120 129 129 149 142 108 96 73
329 326 325 324 318 319 316 318 317 320 319 314 314 315 320 262 20 143 149 126 167 248 287 294 323 17 5 9 224 85 63 79 86 96 93 108 143 114 115 148 112 108 103 96 91
325 322 325 321 317 317 319 317 317 318 318 312 309 327 274 273 252 139 122 135 197 215 224 265 221 69 36 313 50 19 83 61 70 122 118 115 112 112 105 98 106 115 110 121 135
324 320 322 321 317 315 320 314 313 312 315 312 298 312 290 278 129 141 156 155 240 214 261 257 243 95 127 328 75 307 41 35 333 93 120 119 128 134 140 131 144 136 137 132 136
322 320 321 322 318 315 318 308 303 302 305 308 280 287 279 249 133 155 191 198 210 221 261 79 94 97 292 335 20 58 22 6 337 150 130 144 167 138 149 156 165 150 143 146 133
324 318 321 321 318 317 319 311 302 291 276 258 265 274 258 264 48 165 202 245 233 230 258 132 111 122 159 182 35 55 68 353 284 138 233 104 190 149 166 177 173 166 156 156 145
322 319 320 321 319 320 320 309 297 278 204 173 257 185 276 316 264 214 224 240 244 230 253 288 60 29 77 134 64 2 101 234 296 214 165 186 181 165 178 196 171 176 166 158 139
322 320 320 320 318 325 320 298 273 308 192 213 264 317 268 235 190 191 263 288 293 270 312 215 111 65 61 105 192 172 165 222 215 191 185 192 209 164 178 204 172 173 183 168 157
325 323 322 321 319 324 340 348 359 10 231 256 260 252 301 203 118 171 219 320 312 318 276 279 97 251 218 211 231 172 195 189 212 230 188 333 162 174 176 207 192 172 186 192 179
325 324 324 322 317 310 223 298 338 241 312 293 273 269 250 360 155 213 171 180 269 271 287 313 236 233 186 200 201 23 40 287 323 197 93 21 196 185 180 198 185 169 197 197 140
325 326 328 323 311 311 281 285 314 48 282 287 241 246 205 213 267 210 170 186 251 287 284 276 276 324 31 74 68 268 271 54 72 15 70 14 326 167 194 191 193 180 188 157 163
325 328 331 328 1 337 281 352 353 34 323 252 197 234 247 194 243 253 223 185 213 249 276 278 309 305 95 114 132 254 209 85 43 56 306 33 308 338 173 199 202 195 183 168 169
324 328 328 294 286 306 285 329 343 55 330 152 193 227 209 164 237 233 247 205 243 268 291 277 305 354 10 79 146 232 74 100 95 120 80 106 113 334 334 222 209 197 187 190 173
319 323 339 95 242 253 295 306 19 21 249 173 145 171 213 203 233 222 224 179 207 260 282 280 291 255 272 5 349 68 105 33 65 99 22 236 119 240 212 233 227 198 196 188 167
314 305 309 302 246 323 318 334 10 222 180 140 161 186 221 194 233 224 186 192 184 271 267 288 285 319 56 349 350 45 48 351 3 342 243 99 61 233 269 246 29 188 189 183 170
308 305 226 222 253 310 318 360 254 277 257 140 168 164 192 200 217 254 240 209 226 227 284 303 319 12 359 342 274 112 146 148 237 310 261 183 216 229 279 23 20 359 185 149 149
306 273 246 235 218 211 43 301 249 359 340 16 315 180 212 199 154 203 214 213 214 199 213 247 274 225 279 228 318 104 24 179 149 310 18 157 307 301 62 63 27 281 60 188 183
321 289 255 249 171 108 85 248 256 33 350 349 341 259 214 197 170 158 197 221 241 229 187 252 173 201 292 307 38 112 34 21 351 358 315 332 297 251 136 169 220 253 268 72 193
291 289 262 138 93 78 210 252 308 83 6 22 342 309 340 3 173 209 217 224 205 237 214 199 158 207 109 254 69 24 39 85 189 212 154 273 265 231 191 171 156 42 8 31 359
263 260 215 95 80 212 226 249 318 353 332 293 303 306 3 336 332 166 78 60 338 208 346 347 140 155 207 178 115 143 177 155 158 256 205 193 291 21 112 127 85 321 67 10 6
261 257 269 109 216 257 289 264 162 313 293 352 321 346 351 334 351 15 84 26 44 59 47 322 5 20 344 19 305 202 228 114 108 63 224 132 261 34 354 51 25 36 17 25 30
289 283 223 146 241 286 294 265 206 211 311 322 309 318 312 314 298 306 2 137 81 101 311 71 77 142 201 249 260 300 219 154 154 125 199 224 217 248 273 80 74 59 56 72 35
245 256 231 205 240 217 252 316 304 172 195 275 295 250 270 314 346 324 350 94 125 160 115 99 110 336 305 314 303 319 167 267 193 166 174 274 159 222 155 150 112 138 190 118 145
279 340 337 293 342 231 217 254 297 295 169 232 248 285 291 33 1 19 30 25 40 329 131 119 270 348 313 296 309 327 258 300 345 94 195 48 51 97 104 115 157 212 216 180 199
278 284 217 285 269 315 191 206 270 276 333 319 328 341 39 19 350 320 319 295 273 19 236 140 173 52 288 313 322 343 350 334 66 43 62 56 117 140 145 144 171 212 208 221 231